date,time,SUV Intensity [MED/Hr],UV Index,Daily total [MED],Since Last [MED]
06/05/2022,00:07:44,-0.000,0.0,0.0,0.0
06/05/2022,00:08:45,0.000,0.0,0.0,0.0
06/05/2022,00:09:44,-0.000,0.0,0.0,0.0
06/05/2022,00:10:44,-0.000,0.0,0.0,0.0
06/05/2022,00:11:44,-0.000,0.0,0.0,0.0
06/05/2022,00:12:52,-0.001,0.0,0.0,0.0
06/05/2022,00:14:45,0.001,0.0,0.0,0.0
06/05/2022,00:15:52,0.001,0.0,0.0,0.0
06/05/2022,00:17:45,-0.000,0.0,0.0,0.0
06/05/2022,00:18:52,-0.001,0.0,0.0,0.0
06/05/2022,00:19:45,0.000,0.0,0.0,0.0
06/05/2022,00:20:46,0.000,0.0,0.0,0.0
06/05/2022,00:21:44,0.000,0.0,0.0,0.0
06/05/2022,00:22:44,0.000,0.0,0.0,0.0
06/05/2022,00:23:44,0.001,0.0,0.0,0.0
06/05/2022,00:24:44,0.001,0.0,0.0,0.0
06/05/2022,00:25:53,0.000,0.0,0.0,0.0
06/05/2022,00:27:44,0.000,0.0,0.0,0.0
06/05/2022,00:28:53,-0.001,0.0,0.0,0.0
06/05/2022,00:30:48,0.000,0.0,0.0,0.0
06/05/2022,00:31:44,0.000,0.0,0.0,0.0
06/05/2022,00:32:44,0.000,0.0,0.0,0.0
06/05/2022,00:33:44,0.000,0.0,0.0,0.0
06/05/2022,00:34:44,0.000,0.0,0.0,0.0
06/05/2022,00:35:44,0.000,0.0,0.0,0.0
06/05/2022,00:36:44,0.000,0.0,0.0,0.0
06/05/2022,00:37:45,0.001,0.0,0.0,0.0
06/05/2022,00:38:53,0.000,0.0,0.0,0.0
06/05/2022,00:40:45,-0.001,0.0,0.0,0.0
06/05/2022,00:41:45,-0.001,0.0,0.0,0.0
06/05/2022,00:42:45,0.001,0.0,0.0,0.0
06/05/2022,00:43:44,0.000,0.0,0.0,0.0
06/05/2022,00:44:44,0.000,0.0,0.0,0.0
06/05/2022,00:45:45,0.000,0.0,0.0,0.0
06/05/2022,00:46:45,0.000,0.0,0.0,0.0
06/05/2022,00:47:53,0.000,0.0,0.0,0.0
06/05/2022,00:49:45,-0.000,0.0,0.0,0.0
06/05/2022,00:50:44,0.001,0.0,0.0,0.0
06/05/2022,00:51:44,0.001,0.0,0.0,0.0
06/05/2022,00:52:44,0.000,0.0,0.0,0.0
06/05/2022,00:53:44,0.000,0.0,0.0,0.0
06/05/2022,00:54:44,0.000,0.0,0.0,0.0
06/05/2022,00:55:44,0.000,0.0,0.0,0.0
06/05/2022,00:56:44,0.000,0.0,0.0,0.0
06/05/2022,00:57:52,0.000,0.0,0.0,0.0
06/05/2022,00:59:45,-0.001,0.0,0.0,0.0
06/05/2022,01:00:44,0.001,0.0,0.0,0.0
06/05/2022,01:01:44,0.001,0.0,0.0,0.0
06/05/2022,01:02:44,0.000,0.0,0.0,0.0
06/05/2022,01:03:44,0.001,0.0,0.0,0.0
06/05/2022,01:04:44,0.000,0.0,0.0,0.0
06/05/2022,01:05:44,0.000,0.0,0.0,0.0
06/05/2022,01:06:45,0.001,0.0,0.0,0.0
06/05/2022,01:07:53,-0.001,0.0,0.0,0.0
06/05/2022,01:09:53,0.001,0.0,0.0,0.0
06/05/2022,01:11:53,0.001,0.0,0.0,0.0
06/05/2022,01:13:45,0.000,0.0,0.0,0.0
06/05/2022,01:14:44,-0.000,0.0,0.0,0.0
06/05/2022,01:15:44,0.000,0.0,0.0,0.0
06/05/2022,01:16:44,0.000,0.0,0.0,0.0
06/05/2022,01:17:53,0.000,0.0,0.0,0.0
06/05/2022,01:19:45,0.001,0.0,0.0,0.0
06/05/2022,01:20:44,0.001,0.0,0.0,0.0
06/05/2022,01:21:45,0.000,0.0,0.0,0.0
06/05/2022,01:22:45,0.000,0.0,0.0,0.0
06/05/2022,01:23:53,0.001,0.0,0.0,0.0
06/05/2022,01:24:44,0.000,0.0,0.0,0.0
06/05/2022,01:25:45,0.000,0.0,0.0,0.0
06/05/2022,01:26:45,0.001,0.0,0.0,0.0
06/05/2022,01:27:44,0.001,0.0,0.0,0.0
06/05/2022,01:28:44,0.001,0.0,0.0,0.0
06/05/2022,01:30:01,0.000,0.0,0.0,0.0
06/05/2022,01:31:46,0.000,0.0,0.0,0.0
06/05/2022,01:33:45,0.001,0.0,0.0,0.0
06/05/2022,01:34:45,-0.000,0.0,0.0,0.0
06/05/2022,01:35:45,0.001,0.0,0.0,0.0
06/05/2022,01:36:52,0.000,0.0,0.0,0.0
06/05/2022,01:38:45,0.000,0.0,0.0,0.0
06/05/2022,01:39:45,0.001,0.0,0.0,0.0
06/05/2022,01:40:44,0.001,0.0,0.0,0.0
06/05/2022,01:41:44,0.000,0.0,0.0,0.0
06/05/2022,01:42:44,0.001,0.0,0.0,0.0
06/05/2022,01:43:53,0.000,0.0,0.0,0.0
06/05/2022,01:45:45,0.001,0.0,0.0,0.0
06/05/2022,01:46:53,0.000,0.0,0.0,0.0
06/05/2022,01:48:44,-0.000,0.0,0.0,0.0
06/05/2022,01:49:52,0.000,0.0,0.0,0.0
06/05/2022,01:51:45,0.001,0.0,0.0,0.0
06/05/2022,01:52:44,0.001,0.0,0.0,0.0
06/05/2022,01:53:45,0.001,0.0,0.0,0.0
06/05/2022,01:54:44,-0.000,0.0,0.0,0.0
06/05/2022,01:55:44,0.001,0.0,0.0,0.0
06/05/2022,01:56:45,0.001,0.0,0.0,0.0
06/05/2022,01:57:45,0.001,0.0,0.0,0.0
06/05/2022,01:58:44,0.000,0.0,0.0,0.0
06/05/2022,01:59:52,0.001,0.0,0.0,0.0
06/05/2022,02:01:45,0.001,0.0,0.0,0.0
06/05/2022,02:02:44,0.001,0.0,0.0,0.0
06/05/2022,02:03:44,0.001,0.0,0.0,0.0
06/05/2022,02:04:44,0.001,0.0,0.0,0.0
06/05/2022,02:05:44,0.001,0.0,0.0,0.0
06/05/2022,02:06:45,0.001,0.0,0.0,0.0
06/05/2022,02:07:44,0.002,0.0,0.0,0.0
06/05/2022,02:08:44,0.002,0.0,0.0,0.0
06/05/2022,02:09:53,0.001,0.0,0.0,0.0
06/05/2022,02:11:45,0.001,0.0,0.0,0.0
06/05/2022,02:12:44,0.001,0.0,0.0,0.0
06/05/2022,02:13:44,0.001,0.0,0.0,0.0
06/05/2022,02:14:45,0.001,0.0,0.0,0.0
06/05/2022,02:15:45,0.001,0.0,0.0,0.0
06/05/2022,02:17:01,0.001,0.0,0.0,0.0
06/05/2022,02:18:45,0.002,0.0,0.0,0.0
06/05/2022,02:19:53,0.002,0.0,0.0,0.0
06/05/2022,02:21:45,0.001,0.0,0.0,0.0
06/05/2022,02:22:44,0.000,0.0,0.0,0.0
06/05/2022,02:23:45,0.001,0.0,0.0,0.0
06/05/2022,02:24:45,0.001,0.0,0.0,0.0
06/05/2022,02:25:45,0.001,0.0,0.0,0.0
06/05/2022,02:26:45,0.001,0.0,0.0,0.0
06/05/2022,02:27:44,0.001,0.0,0.0,0.0
06/05/2022,02:28:44,-0.000,0.0,0.0,0.0
06/05/2022,02:29:44,0.001,0.0,0.0,0.0
06/05/2022,02:30:54,-0.000,0.0,0.0,0.0
06/05/2022,02:32:42,0.002,0.0,0.0,0.0
06/05/2022,02:33:45,0.001,0.0,0.0,0.0
06/05/2022,02:34:45,0.001,0.0,0.0,0.0
06/05/2022,02:35:44,0.001,0.0,0.0,0.0
06/05/2022,02:36:45,0.001,0.0,0.0,0.0
06/05/2022,02:37:44,0.000,0.0,0.0,0.0
06/05/2022,02:38:44,0.000,0.0,0.0,0.0
06/05/2022,02:39:45,0.001,0.0,0.0,0.0
06/05/2022,02:40:45,0.001,0.0,0.0,0.0
06/05/2022,02:41:45,0.000,0.0,0.0,0.0
06/05/2022,02:42:53,0.001,0.0,0.0,0.0
06/05/2022,02:44:45,0.002,0.0,0.0,0.0
06/05/2022,02:45:44,0.001,0.0,0.0,0.0
06/05/2022,02:46:45,0.001,0.0,0.0,0.0
06/05/2022,02:47:44,0.002,0.0,0.0,0.0
06/05/2022,02:48:45,-0.000,0.0,0.0,0.0
06/05/2022,02:49:45,0.001,0.0,0.0,0.0
06/05/2022,02:50:44,0.001,0.0,0.0,0.0
06/05/2022,02:51:44,0.002,0.0,0.0,0.0
06/05/2022,02:52:52,0.001,0.0,0.0,0.0
06/05/2022,02:54:45,0.001,0.0,0.0,0.0
06/05/2022,02:55:45,0.001,0.0,0.0,0.0
06/05/2022,02:56:45,0.001,0.0,0.0,0.0
06/05/2022,02:57:45,0.001,0.0,0.0,0.0
06/05/2022,02:58:45,0.000,0.0,0.0,0.0
06/05/2022,02:59:44,0.001,0.0,0.0,0.0
06/05/2022,03:00:44,0.001,0.0,0.0,0.0
06/05/2022,03:01:45,0.000,0.0,0.0,0.0
06/05/2022,03:02:44,0.001,0.0,0.0,0.0
06/05/2022,03:03:44,0.001,0.0,0.0,0.0
06/05/2022,03:04:44,0.001,0.0,0.0,0.0
06/05/2022,03:05:53,0.000,0.0,0.0,0.0
06/05/2022,03:07:45,0.001,0.0,0.0,0.0
06/05/2022,03:08:53,0.001,0.0,0.0,0.0
06/05/2022,03:10:45,0.001,0.0,0.0,0.0
06/05/2022,03:11:45,0.001,0.0,0.0,0.0
06/05/2022,03:12:45,0.002,0.0,0.0,0.0
06/05/2022,03:13:45,0.001,0.0,0.0,0.0
06/05/2022,03:14:45,0.001,0.0,0.0,0.0
06/05/2022,03:15:45,0.001,0.0,0.0,0.0
06/05/2022,03:16:44,0.001,0.0,0.0,0.0
06/05/2022,03:17:45,0.001,0.0,0.0,0.0
06/05/2022,03:18:53,0.001,0.0,0.0,0.0
06/05/2022,03:20:45,0.002,0.0,0.0,0.0
06/05/2022,03:21:44,0.002,0.0,0.0,0.0
06/05/2022,03:22:44,0.000,0.0,0.0,0.0
06/05/2022,03:23:44,0.001,0.0,0.0,0.0
06/05/2022,03:24:44,0.001,0.0,0.0,0.0
06/05/2022,03:25:44,0.001,0.0,0.0,0.0
06/05/2022,03:26:44,0.000,0.0,0.0,0.0
06/05/2022,03:27:44,0.000,0.0,0.0,0.0
06/05/2022,03:28:53,0.001,0.0,0.0,0.0
06/05/2022,03:30:45,0.001,0.0,0.0,0.0
06/05/2022,03:31:44,0.001,0.0,0.0,0.0
06/05/2022,03:32:44,0.001,0.0,0.0,0.0
06/05/2022,03:33:44,0.001,0.0,0.0,0.0
06/05/2022,03:34:44,0.001,0.0,0.0,0.0
06/05/2022,03:35:45,0.001,0.0,0.0,0.0
06/05/2022,03:36:45,0.001,0.0,0.0,0.0
06/05/2022,03:37:43,0.001,0.0,0.0,0.0
06/05/2022,03:38:45,0.001,0.0,0.0,0.0
06/05/2022,03:40:18,0.002,0.0,0.0,0.0
06/05/2022,03:41:45,0.001,0.0,0.0,0.0
06/05/2022,03:42:45,0.002,0.0,0.0,0.0
06/05/2022,03:43:45,0.001,0.0,0.0,0.0
06/05/2022,03:44:44,0.001,0.0,0.0,0.0
06/05/2022,03:45:35,0.002,0.0,0.0,0.0
06/05/2022,03:46:45,0.001,0.0,0.0,0.0
06/05/2022,03:47:45,0.001,0.0,0.0,0.0
06/05/2022,03:48:45,0.001,0.0,0.0,0.0
06/05/2022,03:49:45,0.001,0.0,0.0,0.0
06/05/2022,03:50:45,0.002,0.0,0.0,0.0
06/05/2022,03:51:59,0.001,0.0,0.0,0.0
06/05/2022,03:53:54,0.001,0.0,0.0,0.0
06/05/2022,03:55:45,0.001,0.0,0.0,0.0
06/05/2022,03:56:44,0.001,0.0,0.0,0.0
06/05/2022,03:57:44,0.001,0.0,0.0,0.0
06/05/2022,03:58:44,0.002,0.0,0.0,0.0
06/05/2022,03:59:44,0.002,0.0,0.0,0.0
06/05/2022,04:00:44,0.001,0.0,0.0,0.0
06/05/2022,04:01:44,0.001,0.0,0.0,0.0
06/05/2022,04:02:53,0.001,0.0,0.0,0.0
06/05/2022,04:04:46,0.001,0.0,0.0,0.0
06/05/2022,04:05:53,0.001,0.0,0.0,0.0
06/05/2022,04:07:46,0.001,0.0,0.0,0.0
06/05/2022,04:08:51,0.001,0.0,0.0,0.0
06/05/2022,04:09:44,0.001,0.0,0.0,0.0
06/05/2022,04:10:45,0.001,0.0,0.0,0.0
06/05/2022,04:11:45,0.001,0.0,0.0,0.0
06/05/2022,04:12:44,0.002,0.0,0.0,0.0
06/05/2022,04:13:44,0.002,0.0,0.0,0.0
06/05/2022,04:14:45,0.002,0.0,0.0,0.0
06/05/2022,04:15:44,0.001,0.0,0.0,0.0
06/05/2022,04:16:44,0.002,0.0,0.0,0.0
06/05/2022,04:17:45,0.001,0.0,0.0,0.0
06/05/2022,04:18:53,0.002,0.0,0.0,0.0
06/05/2022,04:20:45,0.001,0.0,0.0,0.0
06/05/2022,04:21:45,0.002,0.0,0.0,0.0
06/05/2022,04:22:44,0.002,0.0,0.0,0.0
06/05/2022,04:23:45,0.002,0.0,0.0,0.0
06/05/2022,04:24:45,0.002,0.0,0.0,0.0
06/05/2022,04:25:45,0.002,0.0,0.0,0.0
06/05/2022,04:26:45,0.003,0.0,0.0,0.0
06/05/2022,04:27:45,0.002,0.0,0.0,0.0
06/05/2022,04:28:45,0.002,0.0,0.0,0.0
06/05/2022,04:29:45,0.002,0.0,0.0,0.0
06/05/2022,04:30:44,0.003,0.0,0.0,0.0
06/05/2022,04:31:46,0.003,0.0,0.0,0.0
06/05/2022,04:32:54,0.003,0.0,0.0,0.0
06/05/2022,04:34:45,0.004,0.0,0.0,0.0
06/05/2022,04:35:44,0.003,0.0,0.0,0.0
06/05/2022,04:36:44,0.005,0.0,0.0,0.0
06/05/2022,04:37:45,0.003,0.0,0.0,0.0
06/05/2022,04:38:45,0.004,0.0,0.0,0.0
06/05/2022,04:39:45,0.004,0.0,0.0,0.0
06/05/2022,04:40:46,0.004,0.0,0.0,0.0
06/05/2022,04:41:45,0.004,0.0,0.0,0.0
06/05/2022,04:42:53,0.004,0.0,0.0,0.0
06/05/2022,04:44:45,0.004,0.0,0.0,0.0
06/05/2022,04:45:44,0.004,0.0,0.0,0.0
06/05/2022,04:46:45,0.006,0.0,0.0,0.0
06/05/2022,04:47:45,0.006,0.0,0.0,0.0
06/05/2022,04:48:45,0.006,0.0,0.0,0.0
06/05/2022,04:49:45,0.006,0.0,0.0,0.0
06/05/2022,04:50:45,0.006,0.0,0.0,0.0
06/05/2022,04:51:44,0.007,0.0,0.0,0.0
06/05/2022,04:52:44,0.007,0.0,0.0,0.0
06/05/2022,04:53:44,0.007,0.0,0.001,0.001
06/05/2022,04:54:45,0.008,0.0,0.001,0.0
06/05/2022,04:55:53,0.007,0.0,0.001,0.0
06/05/2022,04:57:45,0.008,0.0,0.001,0.0
06/05/2022,04:58:45,0.009,0.0,0.001,0.0
06/05/2022,04:59:45,0.009,0.0,0.001,0.0
06/05/2022,05:00:44,0.010,0.0,0.002,0.001
06/05/2022,05:01:45,0.009,0.0,0.002,0.0
06/05/2022,05:02:45,0.009,0.0,0.002,0.0
06/05/2022,05:03:45,0.011,0.0,0.002,0.0
06/05/2022,05:04:45,0.011,0.0,0.002,0.0
06/05/2022,05:05:53,0.011,0.0,0.002,0.0
06/05/2022,05:07:45,0.012,0.0,0.003,0.001
06/05/2022,05:08:44,0.012,0.0,0.003,0.0
06/05/2022,05:09:44,0.012,0.0,0.003,0.0
06/05/2022,05:10:44,0.013,0.0,0.003,0.0
06/05/2022,05:11:45,0.013,0.0,0.004,0.001
06/05/2022,05:12:45,0.013,0.0,0.004,0.0
06/05/2022,05:13:45,0.013,0.0,0.004,0.0
06/05/2022,05:14:45,0.015,0.0,0.004,0.0
06/05/2022,05:15:45,0.015,0.0,0.004,0.0
06/05/2022,05:16:45,0.016,0.0,0.005,0.001
06/05/2022,05:17:46,0.017,0.0,0.005,0.0
06/05/2022,05:18:45,0.019,0.0,0.005,0.0
06/05/2022,05:19:44,0.018,0.0,0.006,0.001
06/05/2022,05:20:45,0.019,0.0,0.006,0.0
06/05/2022,05:21:45,0.020,0.0,0.006,0.0
06/05/2022,05:22:44,0.021,0.0,0.007,0.001
06/05/2022,05:23:44,0.021,0.0,0.007,0.0
06/05/2022,05:24:44,0.022,0.0,0.007,0.0
06/05/2022,05:25:44,0.022,0.0,0.008,0.001
06/05/2022,05:26:44,0.023,0.0,0.008,0.0
06/05/2022,05:27:45,0.024,0.0,0.008,0.0
06/05/2022,05:28:45,0.024,0.0,0.009,0.001
06/05/2022,05:29:45,0.025,0.0,0.009,0.0
06/05/2022,05:30:45,0.027,0.0,0.01,0.001
06/05/2022,05:31:44,0.026,0.0,0.01,0.0
06/05/2022,05:32:45,0.027,0.0,0.01,0.0
06/05/2022,05:33:45,0.028,0.0,0.011,0.001
06/05/2022,05:34:44,0.029,0.0,0.011,0.0
06/05/2022,05:35:44,0.029,0.0,0.012,0.001
06/05/2022,05:36:45,0.030,0.0,0.012,0.0
06/05/2022,05:37:45,0.031,0.0,0.013,0.001
06/05/2022,05:38:45,0.032,0.0,0.013,0.0
06/05/2022,05:39:45,0.032,0.0,0.014,0.001
06/05/2022,05:40:44,0.034,0.0,0.015,0.001
06/05/2022,05:41:45,0.035,0.0,0.015,0.0
06/05/2022,05:42:44,0.036,0.0,0.016,0.001
06/05/2022,05:43:45,0.038,0.0,0.016,0.0
06/05/2022,05:44:45,0.038,0.0,0.017,0.001
06/05/2022,05:45:45,0.040,0.0,0.018,0.001
06/05/2022,05:46:45,0.041,0.0,0.018,0.0
06/05/2022,05:47:44,0.042,0.0,0.019,0.001
06/05/2022,05:48:45,0.043,0.0,0.02,0.001
06/05/2022,05:49:44,0.044,0.0,0.02,0.0
06/05/2022,05:50:45,0.045,0.0,0.021,0.001
06/05/2022,05:51:45,0.047,0.0,0.022,0.001
06/05/2022,05:52:45,0.048,0.0,0.023,0.001
06/05/2022,05:53:45,0.049,0.0,0.024,0.001
06/05/2022,05:54:44,0.050,0.0,0.024,0.0
06/05/2022,05:55:45,0.050,0.0,0.025,0.001
06/05/2022,05:56:44,0.052,0.0,0.026,0.001
06/05/2022,05:57:45,0.054,0.0,0.027,0.001
06/05/2022,05:58:45,0.054,0.0,0.028,0.001
06/05/2022,05:59:45,0.056,0.0,0.029,0.001
06/05/2022,06:00:45,0.058,0.0,0.03,0.001
06/05/2022,06:01:45,0.060,0.0,0.031,0.001
06/05/2022,06:02:45,0.061,0.0,0.032,0.001
06/05/2022,06:03:45,0.062,0.0,0.033,0.001
06/05/2022,06:04:45,0.063,0.0,0.034,0.001
06/05/2022,06:05:45,0.065,0.0,0.035,0.001
06/05/2022,06:06:44,0.067,0.0,0.036,0.001
06/05/2022,06:07:45,0.068,0.0,0.037,0.001
06/05/2022,06:08:45,0.070,0.0,0.038,0.001
06/05/2022,06:09:45,0.071,0.0,0.039,0.001
06/05/2022,06:10:44,0.073,0.0,0.041,0.002
06/05/2022,06:11:45,0.074,0.0,0.042,0.001
06/05/2022,06:12:57,0.077,0.0,0.043,0.001
06/05/2022,06:14:46,0.080,0.0,0.046,0.003
06/05/2022,06:16:00,0.083,0.0,0.047,0.001
06/05/2022,06:17:46,0.085,0.0,0.05,0.003
06/05/2022,06:18:44,0.088,0.0,0.051,0.001
06/05/2022,06:19:53,0.090,0.0,0.053,0.002
06/05/2022,06:21:45,0.095,0.0,0.056,0.003
06/05/2022,06:22:44,0.096,0.0,0.057,0.001
06/05/2022,06:23:44,0.098,0.0,0.059,0.002
06/05/2022,06:24:45,0.099,0.0,0.061,0.002
06/05/2022,06:25:45,0.102,0.0,0.062,0.001
06/05/2022,06:26:44,0.104,0.0,0.064,0.002
06/05/2022,06:27:44,0.106,0.0,0.066,0.002
06/05/2022,06:28:45,0.108,0.0,0.068,0.002
06/05/2022,06:29:53,0.109,0.0,0.07,0.002
06/05/2022,06:31:45,0.116,0.0,0.073,0.003
06/05/2022,06:32:45,0.118,0.0,0.075,0.002
06/05/2022,06:33:45,0.118,0.0,0.077,0.002
06/05/2022,06:34:45,0.123,0.0,0.079,0.002
06/05/2022,06:35:44,0.127,0.0,0.081,0.002
06/05/2022,06:36:45,0.128,0.0,0.083,0.002
06/05/2022,06:37:45,0.132,0.0,0.086,0.003
06/05/2022,06:38:45,0.135,0.0,0.088,0.002
06/05/2022,06:39:53,0.137,0.0,0.09,0.002
06/05/2022,06:41:45,0.144,0.0,0.095,0.005
06/05/2022,06:42:45,0.148,0.0,0.097,0.002
06/05/2022,06:43:45,0.151,0.0,0.1,0.003
06/05/2022,06:44:46,0.154,0.0,0.102,0.002
06/05/2022,06:45:47,0.155,0.0,0.105,0.003
06/05/2022,06:46:45,0.158,0.0,0.107,0.002
06/05/2022,06:47:45,0.160,0.0,0.11,0.003
06/05/2022,06:48:45,0.164,0.0,0.113,0.003
06/05/2022,06:49:53,0.168,0.0,0.116,0.003
06/05/2022,06:51:45,0.176,0.0,0.121,0.005
06/05/2022,06:52:47,0.180,0.0,0.124,0.003
06/05/2022,06:53:45,0.184,0.0,0.127,0.003
06/05/2022,06:54:45,0.183,0.0,0.13,0.003
06/05/2022,06:55:53,0.189,0.0,0.134,0.004
06/05/2022,06:57:46,0.194,0.0,0.14,0.006
06/05/2022,06:58:45,0.188,0.0,0.143,0.003
06/05/2022,06:59:45,0.187,0.0,0.146,0.003
06/05/2022,07:00:45,0.204,0.0,0.149,0.003
06/05/2022,07:01:44,0.196,0.0,0.152,0.003
06/05/2022,07:02:45,0.215,0.0,0.156,0.004
06/05/2022,07:03:45,0.210,0.0,0.16,0.004
06/05/2022,07:04:45,0.218,1.0,0.163,0.003
06/05/2022,07:05:45,0.222,1.0,0.167,0.004
06/05/2022,07:06:45,0.220,1.0,0.17,0.003
06/05/2022,07:07:45,0.233,1.0,0.174,0.004
06/05/2022,07:08:45,0.232,1.0,0.178,0.004
06/05/2022,07:09:44,0.227,1.0,0.182,0.004
06/05/2022,07:10:45,0.248,1.0,0.186,0.004
06/05/2022,07:11:45,0.250,1.0,0.19,0.004
06/05/2022,07:12:44,0.239,1.0,0.194,0.004
06/05/2022,07:13:44,0.260,1.0,0.198,0.004
06/05/2022,07:14:45,0.266,1.0,0.202,0.004
06/05/2022,07:15:45,0.265,1.0,0.207,0.005
06/05/2022,07:16:45,0.273,1.0,0.211,0.004
06/05/2022,07:17:45,0.251,1.0,0.215,0.004
06/05/2022,07:18:45,0.264,1.0,0.22,0.005
06/05/2022,07:19:45,0.273,1.0,0.224,0.004
06/05/2022,07:20:45,0.291,1.0,0.229,0.005
06/05/2022,07:21:45,0.298,1.0,0.234,0.005
06/05/2022,07:22:45,0.303,1.0,0.239,0.005
06/05/2022,07:23:45,0.306,1.0,0.244,0.005
06/05/2022,07:24:45,0.312,1.0,0.249,0.005
06/05/2022,07:25:45,0.278,1.0,0.254,0.005
06/05/2022,07:26:53,0.320,1.0,0.26,0.006
06/05/2022,07:28:46,0.333,1.0,0.27,0.01
06/05/2022,07:29:53,0.338,1.0,0.276,0.006
06/05/2022,07:31:46,0.313,1.0,0.286,0.01
06/05/2022,07:32:53,0.352,1.0,0.293,0.007
06/05/2022,07:34:45,0.324,1.0,0.303,0.01
06/05/2022,07:35:44,0.351,1.0,0.309,0.006
06/05/2022,07:36:45,0.364,1.0,0.315,0.006
06/05/2022,07:37:45,0.366,1.0,0.321,0.006
06/05/2022,07:38:45,0.372,1.0,0.327,0.006
06/05/2022,07:39:53,0.378,1.0,0.334,0.007
06/05/2022,07:41:45,0.385,1.0,0.346,0.012
06/05/2022,07:43:18,0.397,1.0,0.356,0.01
06/05/2022,07:44:45,0.407,1.0,0.365,0.009
06/05/2022,07:45:45,0.413,1.0,0.372,0.007
06/05/2022,07:46:53,0.416,1.0,0.38,0.008
06/05/2022,07:48:45,0.427,1.0,0.393,0.013
06/05/2022,07:49:45,0.429,1.0,0.4,0.007
06/05/2022,07:50:45,0.430,1.0,0.407,0.007
06/05/2022,07:51:45,0.441,1.0,0.415,0.008
06/05/2022,07:52:45,0.444,1.0,0.422,0.007
06/05/2022,07:53:45,0.453,1.0,0.43,0.008
06/05/2022,07:54:45,0.457,1.0,0.437,0.007
06/05/2022,07:55:45,0.463,1.0,0.445,0.008
06/05/2022,07:56:54,0.470,1.0,0.454,0.009
06/05/2022,07:58:46,0.483,1.0,0.468,0.014
06/05/2022,07:59:53,0.494,1.0,0.478,0.01
06/05/2022,08:00:45,0.492,1.0,0.485,0.007
06/05/2022,08:01:43,0.495,1.0,0.493,0.008
06/05/2022,08:02:45,0.498,1.0,0.501,0.008
06/05/2022,08:03:45,0.504,1.0,0.51,0.009
06/05/2022,08:04:45,0.513,1.0,0.518,0.008
06/05/2022,08:05:44,0.522,1.0,0.526,0.008
06/05/2022,08:06:45,0.527,1.0,0.535,0.009
06/05/2022,08:07:45,0.538,1.0,0.544,0.009
06/05/2022,08:08:45,0.546,1.0,0.553,0.009
06/05/2022,08:09:44,0.550,1.0,0.562,0.009
06/05/2022,08:10:45,0.559,1.0,0.571,0.009
06/05/2022,08:11:44,0.569,1.0,0.581,0.01
06/05/2022,08:12:53,0.581,1.0,0.592,0.011
06/05/2022,08:14:46,0.594,1.0,0.61,0.018
06/05/2022,08:15:45,0.548,1.0,0.619,0.009
06/05/2022,08:16:45,0.599,1.0,0.629,0.01
06/05/2022,08:18:02,0.610,1.0,0.642,0.013
06/05/2022,08:19:54,0.617,1.0,0.661,0.019
06/05/2022,08:21:45,0.639,1.0,0.681,0.02
06/05/2022,08:22:45,0.645,1.0,0.691,0.01
06/05/2022,08:23:45,0.663,2.0,0.702,0.011
06/05/2022,08:24:45,0.670,2.0,0.714,0.012
06/05/2022,08:25:45,0.681,2.0,0.725,0.011
06/05/2022,08:26:45,0.687,2.0,0.736,0.011
06/05/2022,08:27:45,0.692,2.0,0.747,0.011
06/05/2022,08:28:45,0.701,2.0,0.759,0.012
06/05/2022,08:29:45,0.714,2.0,0.77,0.011
06/05/2022,08:30:45,0.717,2.0,0.782,0.012
06/05/2022,08:31:45,0.723,2.0,0.794,0.012
06/05/2022,08:32:54,0.736,2.0,0.808,0.014
06/05/2022,08:34:46,0.736,2.0,0.83,0.022
06/05/2022,08:35:53,0.726,2.0,0.845,0.015
06/05/2022,08:37:46,0.763,2.0,0.868,0.023
06/05/2022,08:38:45,0.765,2.0,0.88,0.012
06/05/2022,08:39:45,0.753,2.0,0.893,0.013
06/05/2022,08:40:45,0.662,2.0,0.904,0.011
06/05/2022,08:41:45,0.770,2.0,0.917,0.013
06/05/2022,08:42:45,0.778,2.0,0.93,0.013
06/05/2022,08:43:45,0.786,2.0,0.942,0.012
06/05/2022,08:44:45,0.800,2.0,0.956,0.014
06/05/2022,08:45:45,0.804,2.0,0.969,0.013
06/05/2022,08:46:45,0.813,2.0,0.983,0.014
06/05/2022,08:47:45,0.831,2.0,0.996,0.013
06/05/2022,08:48:53,0.846,2.0,1.012,0.016
06/05/2022,08:50:46,0.865,2.0,1.039,0.027
06/05/2022,08:51:46,0.860,2.0,1.053,0.014
06/05/2022,08:52:45,0.876,2.0,1.067,0.014
06/05/2022,08:53:45,0.880,2.0,1.082,0.015
06/05/2022,08:54:46,0.867,2.0,1.096,0.014
06/05/2022,08:55:45,0.848,2.0,1.11,0.014
06/05/2022,08:56:45,0.861,2.0,1.124,0.014
06/05/2022,08:57:46,0.873,2.0,1.139,0.015
06/05/2022,08:59:05,0.887,2.0,1.159,0.02
06/05/2022,09:00:46,0.891,2.0,1.183,0.024
06/05/2022,09:01:45,0.919,2.0,1.199,0.016
06/05/2022,09:02:45,0.928,2.0,1.214,0.015
06/05/2022,09:03:45,0.938,2.0,1.229,0.015
06/05/2022,09:04:45,0.958,2.0,1.245,0.016
06/05/2022,09:05:45,0.961,2.0,1.261,0.016
06/05/2022,09:06:45,0.951,2.0,1.277,0.016
06/05/2022,09:07:45,0.978,2.0,1.293,0.016
06/05/2022,09:08:45,0.982,2.0,1.31,0.017
06/05/2022,09:09:45,0.997,2.0,1.325,0.015
06/05/2022,09:10:45,1.003,2.0,1.343,0.018
06/05/2022,09:11:45,1.016,2.0,1.359,0.016
06/05/2022,09:12:45,1.017,2.0,1.376,0.017
06/05/2022,09:13:45,1.034,2.0,1.393,0.017
06/05/2022,09:14:53,1.034,2.0,1.413,0.02
06/05/2022,09:15:45,1.041,2.0,1.427,0.014
06/05/2022,09:16:45,1.058,2.0,1.445,0.018
06/05/2022,09:17:53,1.069,2.0,1.465,0.02
06/05/2022,09:19:46,1.036,2.0,1.498,0.033
06/05/2022,09:20:45,1.073,2.0,1.516,0.018
06/05/2022,09:22:01,1.084,2.0,1.539,0.023
06/05/2022,09:23:46,1.088,3.0,1.57,0.031
06/05/2022,09:24:44,1.105,3.0,1.588,0.018
06/05/2022,09:25:45,1.112,3.0,1.606,0.018
06/05/2022,09:26:47,1.125,3.0,1.625,0.019
06/05/2022,09:27:45,1.132,3.0,1.644,0.019
06/05/2022,09:28:45,1.160,3.0,1.663,0.019
06/05/2022,09:29:45,1.154,3.0,1.683,0.02
06/05/2022,09:30:45,1.164,3.0,1.701,0.018
06/05/2022,09:31:45,1.138,3.0,1.72,0.019
06/05/2022,09:32:45,1.130,3.0,1.739,0.019
06/05/2022,09:33:45,1.137,3.0,1.759,0.02
06/05/2022,09:34:46,1.142,3.0,1.778,0.019
06/05/2022,09:35:45,1.184,3.0,1.797,0.019
06/05/2022,09:36:45,1.194,3.0,1.816,0.019
06/05/2022,09:37:45,1.215,3.0,1.836,0.02
06/05/2022,09:38:45,1.246,3.0,1.858,0.022
06/05/2022,09:39:45,1.243,3.0,1.878,0.02
06/05/2022,09:40:45,1.234,3.0,1.898,0.02
06/05/2022,09:41:45,1.228,3.0,1.919,0.021
06/05/2022,09:42:45,1.214,3.0,1.939,0.02
06/05/2022,09:43:45,1.111,3.0,1.959,0.02
06/05/2022,09:44:45,1.079,2.0,1.978,0.019
06/05/2022,09:45:45,1.034,2.0,1.995,0.017
06/05/2022,09:46:45,1.053,2.0,2.012,0.017
06/05/2022,09:47:46,1.088,3.0,2.029,0.017
06/05/2022,09:48:45,1.106,3.0,2.047,0.018
06/05/2022,09:49:45,1.147,3.0,2.065,0.018
06/05/2022,09:50:45,1.163,3.0,2.085,0.02
06/05/2022,09:51:45,1.197,3.0,2.105,0.02
06/05/2022,09:52:46,1.205,3.0,2.125,0.02
06/05/2022,09:53:45,1.204,3.0,2.144,0.019
06/05/2022,09:54:45,1.212,3.0,2.164,0.02
06/05/2022,09:55:45,1.243,3.0,2.185,0.021
06/05/2022,09:56:45,1.299,3.0,2.206,0.021
06/05/2022,09:57:45,1.297,3.0,2.228,0.022
06/05/2022,09:58:45,1.338,3.0,2.25,0.022
06/05/2022,09:59:45,1.362,3.0,2.272,0.022
06/05/2022,10:00:45,1.378,3.0,2.296,0.024
06/05/2022,10:01:45,1.391,3.0,2.318,0.022
06/05/2022,10:02:53,1.385,3.0,2.344,0.026
06/05/2022,10:03:44,1.394,3.0,2.364,0.02
06/05/2022,10:04:45,1.402,3.0,2.388,0.024
06/05/2022,10:05:45,1.441,3.0,2.412,0.024
06/05/2022,10:06:45,1.448,3.0,2.435,0.023
06/05/2022,10:07:45,1.441,3.0,2.46,0.025
06/05/2022,10:08:54,1.437,3.0,2.487,0.027
06/05/2022,10:10:46,1.425,3.0,2.532,0.045
06/05/2022,10:11:44,1.426,3.0,2.555,0.023
06/05/2022,10:12:45,1.449,3.0,2.579,0.024
06/05/2022,10:13:53,1.466,3.0,2.606,0.027
06/05/2022,10:15:47,1.470,3.0,2.653,0.047
06/05/2022,10:16:45,1.485,3.0,2.676,0.023
06/05/2022,10:17:46,1.528,4.0,2.702,0.026
06/05/2022,10:18:45,1.528,4.0,2.727,0.025
06/05/2022,10:19:45,1.475,3.0,2.752,0.025
06/05/2022,10:21:10,1.515,3.0,2.788,0.036
06/05/2022,10:22:54,1.531,4.0,2.831,0.043
06/05/2022,10:24:46,1.554,4.0,2.88,0.049
06/05/2022,10:25:45,1.561,4.0,2.905,0.025
06/05/2022,10:26:45,1.568,4.0,2.93,0.025
06/05/2022,10:27:44,1.581,4.0,2.957,0.027
06/05/2022,10:28:45,1.614,4.0,2.984,0.027
06/05/2022,10:29:45,1.617,4.0,3.01,0.026
06/05/2022,10:30:45,1.616,4.0,3.037,0.027
06/05/2022,10:31:47,1.635,4.0,3.065,0.028
06/05/2022,10:32:45,1.639,4.0,3.092,0.027
06/05/2022,10:33:45,1.603,4.0,3.119,0.027
06/05/2022,10:34:45,1.609,4.0,3.146,0.027
06/05/2022,10:35:46,1.599,4.0,3.173,0.027
06/05/2022,10:36:45,1.622,4.0,3.199,0.026
06/05/2022,10:37:53,1.637,4.0,3.231,0.032
06/05/2022,10:39:54,1.674,4.0,3.286,0.055
06/05/2022,10:41:46,1.675,4.0,3.338,0.052
06/05/2022,10:42:44,1.694,4.0,3.365,0.027
06/05/2022,10:43:47,1.701,4.0,3.394,0.029
06/05/2022,10:44:46,1.703,4.0,3.423,0.029
06/05/2022,10:45:46,1.669,4.0,3.451,0.028
06/05/2022,10:46:46,1.637,4.0,3.478,0.027
06/05/2022,10:47:45,1.655,4.0,3.505,0.027
06/05/2022,10:48:45,1.676,4.0,3.533,0.028
06/05/2022,10:49:45,1.686,4.0,3.561,0.028
06/05/2022,10:50:45,1.676,4.0,3.589,0.028
06/05/2022,10:51:45,1.695,4.0,3.617,0.028
06/05/2022,10:52:46,1.739,4.0,3.646,0.029
06/05/2022,10:53:53,1.760,4.0,3.679,0.033
06/05/2022,10:55:54,1.761,4.0,3.738,0.059
06/05/2022,10:57:46,1.755,4.0,3.792,0.054
06/05/2022,10:58:45,1.735,4.0,3.821,0.029
06/05/2022,10:59:45,1.756,4.0,3.851,0.03
06/05/2022,11:00:46,1.763,4.0,3.88,0.029
06/05/2022,11:01:45,1.767,4.0,3.908,0.028
06/05/2022,11:02:45,1.772,4.0,3.939,0.031
06/05/2022,11:03:45,1.771,4.0,3.968,0.029
06/05/2022,11:04:46,1.772,4.0,3.998,0.03
06/05/2022,11:05:45,1.761,4.0,4.027,0.029
06/05/2022,11:06:53,1.777,4.0,4.06,0.033
06/05/2022,11:08:46,1.792,4.0,4.116,0.056
06/05/2022,11:09:45,1.810,4.0,4.145,0.029
06/05/2022,11:10:45,1.788,4.0,4.176,0.031
06/05/2022,11:11:46,1.716,4.0,4.205,0.029
06/05/2022,11:12:53,1.752,4.0,4.237,0.032